Volver al catálogo

SL-16 DEB

ActivoLEO
NORAD 22382·DEBRIS·🇷🇺 Russia

Lanzado Dec 25, 1992 desde Baikonur Cosmodrome

Loading…

Próximos Pases (próximas 24 horas)

TLE

ActualizadoSource: Space-Track

Época: Sep 14, 2026, 09:30 UTC

1 22382U 92093BX  26257.39633642  .00000367  00000-0  29265-3 0  9991
2 22382  70.8669 310.0212 0154947 139.3823 237.5035 13.91965233701929

Sigue SL-16 DEB en tiempo real con AllMySat

Download on the App Store